When you browse on this site, cookies collect data to enhance your experience and personalize the content and advertising you see.
Visit our Privacy Policy to learn more. By continuing to use the site, you agree to this use of cookies and data.
  • In United Kingdom
  • List of Countries
  • For 7 days
  • Water Temperature
  • Satellite Maps
  • Weather Map
  • Weather Widgets
  • user-avatar
    Login

    Hourly Weather Jalalabad

    Today, 21 May, Tuesday

    Time Temperature Precipitation Wind Pressure Humidity
    00:00 +28°C° 0 mm 1 mps 710 mmHg 27%
    01:00 +27°C° 0 mm 1 mps 710 mmHg 27%
    02:00 +27°C° 0 mm 1 mps 710 mmHg 27%
    03:00 +26°C° 0 mm 1 mps 710 mmHg 27%
    04:00 +25°C° 0 mm 1 mps 709 mmHg 27%
    05:00 +25°C° 0 mm 1 mps 709 mmHg 27%
    06:00 +27°C° 0 mm 1 mps 709 mmHg 23%
    07:00 +29°C° 0 mm 1 mps 709 mmHg 20%
    08:00 +31°C° 0 mm 1 mps 710 mmHg 17%
    09:00 +32°C° 0 mm 1 mps 710 mmHg 16%
    10:00 +33°C° 0 mm 1 mps 710 mmHg 15%
    11:00 +35°C° 0 mm 2 mps 709 mmHg 15%
    12:00 +36°C° 0 mm 2 mps 709 mmHg 15%
    13:00 +37°C° 0 mm 2 mps 709 mmHg 15%
    14:00 +37°C° 0 mm 3 mps 709 mmHg 15%
    15:00 +37°C° 0 mm 3 mps 709 mmHg 16%
    16:00 +37°C° 0 mm 3 mps 709 mmHg 17%
    17:00 +37°C° 0 mm 4 mps 708 mmHg 18%
    18:00 +36°C° 0 mm 3 mps 709 mmHg 21%
    19:00 +35°C° 0 mm 2 mps 709 mmHg 23%
    20:00 +33°C° 0 mm 1 mps 709 mmHg 25%
    21:00 +32°C° 0 mm 1 mps 709 mmHg 26%
    22:00 +31°C° 0 mm 1 mps 709 mmHg 27%
    23:00 +30°C° 0 mm 1 mps 710 mmHg 29%

    Tomorrow, 22 May, Wednesday

    Time Temperature Precipitation Wind Pressure Humidity
    00:00 +29°C° 0 mm 1 mps 709 mmHg 30%
    01:00 +28°C° 0 mm 1 mps 709 mmHg 31%
    02:00 +26°C° 0 mm 0 mps 709 mmHg 32%
    03:00 +27°C° 0 mm 1 mps 708 mmHg 31%
    04:00 +27°C° 0 mm 1 mps 708 mmHg 31%
    05:00 +26°C° 0 mm 2 mps 708 mmHg 31%
    06:00 +28°C° 0 mm 2 mps 708 mmHg 28%
    07:00 +29°C° 0 mm 2 mps 709 mmHg 25%
    08:00 +30°C° 0 mm 2 mps 709 mmHg 22%
    09:00 +31°C° 0 mm 2 mps 709 mmHg 21%
    10:00 +32°C° 0 mm 2 mps 708 mmHg 20%
    11:00 +34°C° 0 mm 2 mps 708 mmHg 19%
    12:00 +35°C° 0 mm 2 mps 708 mmHg 18%
    13:00 +35°C° 0 mm 2 mps 707 mmHg 18%
    14:00 +36°C° 0 mm 2 mps 707 mmHg 18%
    15:00 +35°C° 0.1 mm 2 mps 707 mmHg 19%
    16:00 +34°C° 0.1 mm 1 mps 707 mmHg 20%
    17:00 +33°C° 0.1 mm 1 mps 706 mmHg 22%
    18:00 +32°C° 0.2 mm 1 mps 707 mmHg 24%
    19:00 +32°C° 0.2 mm 2 mps 707 mmHg 26%
    20:00 +31°C° 0.2 mm 2 mps 707 mmHg 28%
    21:00 +30°C° 0.3 mm 2 mps 707 mmHg 32%
    22:00 +29°C° 0.3 mm 2 mps 707 mmHg 36%
    23:00 +28°C° 0.3 mm 2 mps 708 mmHg 40%

    Day after tomorrow, 23 May, Thursday

    Time Temperature Precipitation Wind Pressure Humidity
    00:00 +27°C° 0.5 mm 1 mps 707 mmHg 45%
    01:00 +26°C° 0.5 mm 1 mps 707 mmHg 50%
    02:00 +26°C° 0.5 mm 1 mps 707 mmHg 54%
    03:00 +25°C° 0.3 mm 2 mps 707 mmHg 56%
    04:00 +25°C° 0.3 mm 2 mps 707 mmHg 58%
    05:00 +25°C° 0.3 mm 2 mps 706 mmHg 59%
    06:00 +24°C° 0.6 mm 2 mps 707 mmHg 60%
    07:00 +24°C° 0.6 mm 2 mps 707 mmHg 60%
    08:00 +24°C° 0.6 mm 1 mps 707 mmHg 61%
    09:00 +24°C° 1.4 mm 2 mps 707 mmHg 62%
    10:00 +23°C° 1.4 mm 2 mps 707 mmHg 63%
    11:00 +23°C° 1.4 mm 2 mps 707 mmHg 64%
    12:00 +23°C° 0.6 mm 2 mps 707 mmHg 61%
    13:00 +24°C° 0.6 mm 2 mps 707 mmHg 58%
    14:00 +24°C° 0.6 mm 2 mps 706 mmHg 55%
    15:00 +25°C° 0 mm 2 mps 706 mmHg 52%
    16:00 +25°C° 0 mm 2 mps 706 mmHg 48%
    17:00 +26°C° 0 mm 1 mps 706 mmHg 45%
    18:00 +26°C° 0 mm 1 mps 706 mmHg 47%
    19:00 +25°C° 0 mm 1 mps 706 mmHg 49%
    20:00 +23°C° 0 mm 0 mps 707 mmHg 51%
    21:00 +23°C° 0.1 mm 0 mps 707 mmHg 51%
    22:00 +23°C° 0.1 mm 0 mps 707 mmHg 52%
    23:00 +23°C° 0.1 mm 0 mps 707 mmHg 52%

    24 May, Friday

    Time Temperature Precipitation Wind Pressure Humidity
    00:00 +25°C° 0.1 mm 1 mps 707 mmHg 52%
    01:00 +24°C° 0.1 mm 1 mps 707 mmHg 53%
    02:00 +24°C° 0.1 mm 1 mps 707 mmHg 53%
    03:00 +24°C° 0 mm 1 mps 707 mmHg 54%
    04:00 +21°C° 0 mm 0 mps 706 mmHg 55%
    05:00 +21°C° 0 mm 0 mps 706 mmHg 56%
    06:00 +22°C° 0 mm 0 mps 706 mmHg 53%
    07:00 +24°C° 0 mm 1 mps 707 mmHg 50%
    08:00 +25°C° 0 mm 1 mps 707 mmHg 46%
    09:00 +26°C° 0 mm 1 mps 707 mmHg 44%
    10:00 +27°C° 0 mm 2 mps 707 mmHg 42%
    11:00 +29°C° 0 mm 3 mps 707 mmHg 40%
    12:00 +29°C° 0 mm 3 mps 707 mmHg 39%
    13:00 +30°C° 0 mm 3 mps 707 mmHg 37%
    14:00 +31°C° 0 mm 3 mps 707 mmHg 36%
    15:00 +31°C° 0.1 mm 3 mps 707 mmHg 36%
    16:00 +30°C° 0.1 mm 3 mps 706 mmHg 37%
    17:00 +30°C° 0.1 mm 3 mps 706 mmHg 37%
    18:00 +30°C° 0.1 mm 2 mps 707 mmHg 40%
    19:00 +29°C° 0.1 mm 1 mps 707 mmHg 43%
    20:00 +28°C° 0.1 mm 1 mps 707 mmHg 46%
    21:00 +26°C° 0 mm 0 mps 708 mmHg 48%
    22:00 +25°C° 0 mm 0 mps 708 mmHg 50%
    23:00 +25°C° 0 mm 0 mps 708 mmHg 52%

    25 May, Saturday

    Time Temperature Precipitation Wind Pressure Humidity
    00:00 +24°C° 0 mm 0 mps 708 mmHg 53%
    01:00 +26°C° 0 mm 1 mps 708 mmHg 54%
    02:00 +25°C° 0 mm 1 mps 707 mmHg 55%
    03:00 +24°C° 0 mm 1 mps 707 mmHg 55%
    04:00 +24°C° 0 mm 1 mps 707 mmHg 55%
    05:00 +23°C° 0 mm 1 mps 707 mmHg 55%
    06:00 +25°C° 0 mm 1 mps 707 mmHg 48%
    07:00 +26°C° 0 mm 1 mps 708 mmHg 41%
    08:00 +28°C° 0 mm 1 mps 708 mmHg 33%
    09:00 +29°C° 0 mm 1 mps 708 mmHg 28%
    10:00 +31°C° 0 mm 2 mps 708 mmHg 23%
    11:00 +32°C° 0 mm 2 mps 708 mmHg 17%
    12:00 +34°C° 0 mm 2 mps 707 mmHg 15%
    13:00 +35°C° 0 mm 2 mps 707 mmHg 13%
    14:00 +36°C° 0 mm 2 mps 706 mmHg 11%
    15:00 +36°C° 0 mm 2 mps 706 mmHg 11%
    16:00 +36°C° 0 mm 2 mps 706 mmHg 11%
    17:00 +36°C° 0 mm 2 mps 706 mmHg 11%
    18:00 +35°C° 0 mm 3 mps 706 mmHg 13%
    19:00 +34°C° 0 mm 3 mps 707 mmHg 15%
    20:00 +33°C° 0 mm 3 mps 707 mmHg 17%
    21:00 +31°C° 0 mm 3 mps 707 mmHg 19%
    22:00 +32°C° 0 mm 4 mps 708 mmHg 20%
    23:00 +30°C° 0 mm 4 mps 708 mmHg 21%

    26 May, Sunday

    Time Temperature Precipitation Wind Pressure Humidity
    00:00 +30°C° 0 mm 4 mps 708 mmHg 22%
    01:00 +29°C° 0 mm 4 mps 707 mmHg 24%
    02:00 +28°C° 0 mm 3 mps 707 mmHg 25%
    03:00 +27°C° 0 mm 3 mps 707 mmHg 26%
    04:00 +26°C° 0 mm 3 mps 707 mmHg 28%
    05:00 +25°C° 0 mm 3 mps 707 mmHg 29%
    06:00 +26°C° 0 mm 4 mps 707 mmHg 26%
    07:00 +27°C° 0 mm 5 mps 708 mmHg 23%
    08:00 +28°C° 0 mm 6 mps 708 mmHg 20%
    09:00 +29°C° 0 mm 6 mps 708 mmHg 18%
    10:00 +32°C° 0 mm 6 mps 708 mmHg 16%
    11:00 +33°C° 0 mm 6 mps 708 mmHg 14%
    12:00 +33°C° 0 mm 6 mps 708 mmHg 13%
    13:00 +34°C° 0 mm 5 mps 708 mmHg 12%
    14:00 +34°C° 0 mm 5 mps 707 mmHg 10%
    15:00 +34°C° 0 mm 5 mps 707 mmHg 11%
    16:00 +34°C° 0 mm 5 mps 707 mmHg 11%
    17:00 +34°C° 0 mm 5 mps 707 mmHg 11%
    18:00 +33°C° 0 mm 5 mps 708 mmHg 13%
    19:00 +30°C° 0 mm 5 mps 708 mmHg 16%
    20:00 +29°C° 0 mm 5 mps 708 mmHg 18%
    21:00 +28°C° 0 mm 5 mps 708 mmHg 20%
    22:00 +27°C° 0 mm 5 mps 708 mmHg 21%
    23:00 +27°C° 0 mm 5 mps 708 mmHg 23%
    Show more